Total_Precipitation_Accumulation
0.00 0.00 0.00 0.00 0.00 0.00 0.00 0.00 0.00 0.00 0.00 0.00 0.00 0.00 0.00 0.00 0.01 0.00 0.01 0.01 0.02 0.10 0.18 0.32 0.27 0.29 0.39 0.75 0.45 0.41 0.56 1.06 0.74 0.68 0.60 0.98 0.50 0.34 0.16 0.45 0.07 0.07 0.04 0.01 0.02 0.01 0.00 0.00 0.00 0.00 0.00 0.00 0.00 0.00 0.00 0.00 0.00 0.00 0.00 0.00 0.00 0.00 0.00 0.00 0.00 0.04 0.01 0.01 0.00 0.00 0.01 0.02 0.02 0.03 0.02 0.03 0.02 0.01 0.02 0.00 0.01 0.01 0.05 0.04 0.03 0.05
0.00 0.00 0.00 0.00 0.00 0.00 0.00 0.00 0.00 0.00 0.00 0.00 0.00 0.00 0.00 0.01 0.00 0.00 0.01 0.02 0.00 0.05 0.14 0.24 0.19 0.09 0.26 0.47 0.41 0.39 0.40 0.57 0.84 0.82 0.84 0.64 0.46 0.53 0.44 0.31 0.11 0.10 0.05 0.02 0.02 0.01 0.01 0.00 0.01 0.00 0.00 0.00 0.00 0.00 0.00 0.00 0.00 0.00 0.00 0.00 0.00 0.00 0.00 0.00 0.00 0.01 0.02 0.00 0.00 0.00 0.00 0.00 0.03 0.02 0.01 0.03 0.02 0.06 0.03 0.01 0.01 0.02 0.02 0.01 0.02 0.04
0.00 0.00 0.00 0.00 0.00 0.00 0.00 0.00 0.00 0.00 0.00 0.00 0.01 0.01 0.00 0.00 0.00 0.00 0.00 0.01 0.04 0.01 0.24 0.10 0.15 0.27 0.12 0.13 0.19 0.13 0.27 0.39 0.27 0.35 0.40 0.82 0.81 0.58 0.43 0.65 0.48 0.11 0.05 0.03 0.02 0.03 0.01 0.00 0.00 0.00 0.00 0.00 0.00 0.00 0.00 0.00 0.00 0.00 0.00 0.00 0.00 0.00 0.00 0.00 0.00 0.00 0.00 0.00 0.00 0.00 0.00 0.00 0.02 0.00 0.02 0.03 0.02 0.02 0.02 0.02 0.00 0.02 0.07 0.01 0.01 0.02
0.00 0.00 0.00 0.00 0.00 0.00 0.00 0.00 0.00 0.00 0.00 0.00 0.00 0.00 0.01 0.00 0.00 0.02 0.00 0.00 0.00 0.00 0.03 0.01 0.04 0.09 0.05 0.03 0.22 0.15 0.20 0.28 0.08 0.13 0.34 0.66 0.76 0.27 0.17 0.32 0.41 0.40 0.05 0.04 0.01 0.01 0.00 0.02 0.01 0.00 0.00 0.00 0.00 0.00 0.00 0.00 0.00 0.00 0.00 0.00 0.00 0.00 0.00 0.00 0.00 0.00 0.00 0.00 0.00 0.00 0.00 0.00 0.01 0.03 0.01 0.01 0.01 0.02 0.06 0.02 0.01 0.01 0.02 0.04 0.04 0.07
0.00 0.00 0.00 0.00 0.00 0.00 0.00 0.00 0.00 0.00 0.00 0.00 0.00 0.00 0.00 0.00 0.00 0.00 0.02 0.00 0.00 0.00 0.00 0.01 0.03 0.01 0.06 0.08 0.16 0.35 0.40 0.43 0.30 0.19 0.15 0.50 0.56 0.56 0.35 0.16 0.30 0.49 0.37 0.09 0.04 0.00 0.01 0.00 0.01 0.00 0.00 0.00 0.00 0.00 0.00 0.00 0.00 0.00 0.00 0.00 0.00 0.00 0.00 0.00 0.00 0.00 0.00 0.03 0.02 0.01 0.00 0.01 0.01 0.00 0.01 0.01 0.02 0.03 0.03 0.01 0.02 0.02 0.04 0.02 0.04 0.03
0.00 0.00 0.00 0.00 0.00 0.00 0.00 0.00 0.00 0.00 0.00 0.00 0.00 0.00 0.00 0.00 0.00 0.00 0.01 0.00 0.00 0.00 0.00 0.00 0.05 0.04 0.01 0.03 0.08 0.05 0.17 0.35 0.27 0.15 0.12 0.32 0.58 0.44 0.23 0.16 0.23 0.40 0.37 0.12 0.10 0.02 0.00 0.01 0.04 0.00 0.00 0.00 0.00 0.00 0.00 0.00 0.00 0.00 0.00 0.00 0.00 0.00 0.00 0.00 0.00 0.00 0.00 0.02 0.00 0.01 0.04 0.06 0.01 0.05 0.01 0.01 0.01 0.01 0.01 0.04 0.02 0.03 0.07 0.03 0.04 0.02
0.00 0.00 0.00 0.00 0.00 0.00 0.00 0.00 0.00 0.00 0.00 0.00 0.00 0.00 0.00 0.00 0.01 0.00 0.00 0.00 0.00 0.01 0.00 0.00 0.00 0.07 0.02 0.06 0.09 0.07 0.05 0.26 0.26 0.10 0.15 0.30 0.61 0.34 0.20 0.20 0.25 0.28 0.28 0.23 0.09 0.04 0.04 0.01 0.01 0.00 0.00 0.00 0.00 0.00 0.00 0.01 0.00 0.00 0.00 0.00 0.00 0.00 0.00 0.00 0.00 0.00 0.00 0.00 0.00 0.01 0.02 0.01 0.01 0.01 0.01 0.01 0.01 0.01 0.00 0.01 0.00 0.05 0.06 0.04 0.03 0.09
0.00 0.00 0.00 0.00 0.00 0.00 0.00 0.00 0.00 0.00 0.00 0.00 0.00 0.00 0.00 0.00 0.00 0.01 0.03 0.00 0.00 0.00 0.00 0.00 0.00 0.08 0.10 0.05 0.03 0.10 0.06 0.07 0.10 0.15 0.42 0.67 0.39 0.27 0.24 0.21 0.26 0.36 0.13 0.18 0.09 0.07 0.02 0.02 0.01 0.00 0.00 0.01 0.00 0.00 0.00 0.01 0.00 0.00 0.00 0.00 0.00 0.00 0.00 0.00 0.00 0.00 0.00 0.00 0.01 0.03 0.01 0.00 0.00 0.00 0.00 0.00 0.00 0.00 0.00 0.03 0.01 0.01 0.03 0.01 0.02 0.02
0.00 0.00 0.00 0.00 0.00 0.00 0.00 0.00 0.00 0.00 0.00 0.00 0.00 0.00 0.00 0.00 0.00 0.00 0.00 0.03 0.00 0.00 0.02 0.00 0.00 0.04 0.04 0.11 0.03 0.36 0.37 0.19 0.13 0.28 0.87 0.50 0.45 0.24 0.19 0.24 0.35 0.44 0.30 0.16 0.15 0.15 0.08 0.02 0.01 0.01 0.00 0.02 0.00 0.00 0.00 0.00 0.00 0.00 0.00 0.00 0.00 0.00 0.00 0.00 0.00 0.00 0.00 0.00 0.01 0.00 0.01 0.00 0.00 0.00 0.00 0.00 0.00 0.00 0.00 0.00 0.01 0.01 0.01 0.01 0.01 0.01
0.00 0.00 0.00 0.00 0.00 0.00 0.00 0.00 0.00 0.00 0.00 0.00 0.00 0.00 0.00 0.00 0.00 0.00 0.00 0.00 0.00 0.00 0.00 0.00 0.00 0.01 0.20 0.14 0.06 0.19 0.26 0.08 0.04 0.12 0.37 0.37 0.74 0.32 0.14 0.20 0.36 0.29 0.21 0.28 0.37 0.14 0.33 0.06 0.07 0.01 0.02 0.00 0.00 0.01 0.01 0.00 0.00 0.00 0.00 0.00 0.00 0.00 0.00 0.00 0.00 0.00 0.00 0.00 0.00 0.01 0.00 0.00 0.00 0.00 0.00 0.00 0.00 0.00 0.00 0.01 0.00 0.01 0.01 0.01 0.01 0.03
0.00 0.00 0.00 0.00 0.00 0.00 0.00 0.00 0.00 0.00 0.00 0.00 0.00 0.00 0.00 0.00 0.00 0.00 0.00 0.00 0.00 0.00 0.00 0.00 0.00 0.01 0.16 0.19 0.11 0.23 0.18 0.08 0.02 0.06 0.06 0.16 0.37 0.40 0.25 0.18 0.24 0.35 0.41 0.32 0.23 0.49 0.11 0.06 0.04 0.02 0.02 0.01 0.00 0.02 0.04 0.04 0.02 0.02 0.00 0.00 0.01 0.00 0.00 0.00 0.00 0.00 0.00 0.00 0.00 0.00 0.00 0.00 0.00 0.00 0.01 0.00 0.00 0.00 0.00 0.00 0.01 0.01 0.01 0.02 0.01 0.01
0.00 0.00 0.00 0.00 0.00 0.00 0.00 0.00 0.00 0.00 0.00 0.00 0.00 0.00 0.00 0.00 0.00 0.00 0.00 0.00 0.00 0.00 0.00 0.00 0.00 0.00 0.03 0.17 0.07 0.01 0.00 0.02 0.00 0.03 0.01 0.04 0.06 0.17 0.53 0.28 0.15 0.25 0.26 0.37 0.34 0.27 0.21 0.16 0.18 0.06 0.04 0.04 0.03 0.04 0.05 0.07 0.09 0.04 0.05 0.03 0.00 0.00 0.00 0.00 0.00 0.00 0.00 0.00 0.00 0.00 0.00 0.00 0.00 0.00 0.00 0.01 0.00 0.00 0.00 0.00 0.00 0.01 0.00 0.01 0.00 0.00
0.00 0.00 0.00 0.00 0.00 0.00 0.00 0.00 0.00 0.00 0.00 0.00 0.00 0.00 0.00 0.00 0.00 0.00 0.00 0.00 0.00 0.00 0.00 0.00 0.00 0.01 0.02 0.07 0.01 0.00 0.00 0.01 0.03 0.00 0.01 0.01 0.00 0.06 0.36 0.32 0.11 0.15 0.12 0.27 0.39 0.34 0.18 0.13 0.09 0.06 0.05 0.02 0.03 0.04 0.02 0.03 0.05 0.07 0.03 0.04 0.02 0.00 0.00 0.00 0.00 0.00 0.00 0.00 0.00 0.00 0.00 0.00 0.00 0.00 0.00 0.01 0.00 0.00 0.00 0.00 0.00 0.00 0.00 0.00 0.01 0.01
0.00 0.00 0.00 0.00 0.00 0.00 0.00 0.00 0.01 0.00 0.00 0.00 0.00 0.00 0.00 0.00 0.00 0.00 0.00 0.00 0.00 0.00 0.00 0.00 0.02 0.12 0.04 0.02 0.00 0.00 0.00 0.02 0.00 0.01 0.00 0.00 0.02 0.07 0.06 0.11 0.12 0.07 0.10 0.19 0.31 0.35 0.37 0.11 0.19 0.07 0.07 0.07 0.02 0.06 0.01 0.02 0.02 0.02 0.03 0.04 0.05 0.01 0.00 0.00 0.00 0.00 0.00 0.00 0.00 0.00 0.00 0.00 0.00 0.00 0.00 0.01 0.01 0.00 0.00 0.00 0.00 0.00 0.00 0.00 0.00 0.01
0.00 0.00 0.00 0.00 0.00 0.00 0.00 0.00 0.00 0.00 0.00 0.00 0.00 0.00 0.00 0.00 0.00 0.00 0.00 0.00 0.00 0.01 0.00 0.00 0.00 0.07 0.05 0.01 0.05 0.00 0.01 0.00 0.00 0.00 0.00 0.00 0.01 0.00 0.18 0.13 0.17 0.09 0.13 0.19 0.20 0.30 0.14 0.12 0.08 0.18 0.12 0.12 0.09 0.03 0.17 0.14 0.19 0.13 0.05 0.05 0.03 0.05 0.05 0.01 0.00 0.00 0.00 0.00 0.00 0.00 0.00 0.00 0.00 0.00 0.00 0.00 0.00 0.00 0.00 0.00 0.00 0.00 0.00 0.00 0.00 0.00
0.00 0.00 0.00 0.00 0.00 0.00 0.00 0.00 0.00 0.00 0.00 0.00 0.00 0.00 0.00 0.00 0.00 0.00 0.00 0.00 0.00 0.00 0.00 0.00 0.13 0.28 0.16 0.01 0.01 0.00 0.00 0.00 0.00 0.00 0.00 0.02 0.02 0.10 0.16 0.05 0.13 0.11 0.06 0.19 0.28 0.32 0.19 0.16 0.19 0.12 0.24 0.12 0.12 0.11 0.35 0.15 0.21 0.58 0.33 0.08 0.12 0.05 0.03 0.05 0.01 0.00 0.00 0.00 0.00 0.00 0.00 0.00 0.00 0.00 0.00 0.01 0.00 0.00 0.00 0.00 0.00 0.00 0.00 0.00 0.01 0.00
0.00 0.00 0.00 0.00 0.00 0.00 0.00 0.00 0.01 0.00 0.00 0.00 0.00 0.00 0.00 0.00 0.00 0.00 0.00 0.00 0.00 0.00 0.00 0.00 0.01 0.02 0.00 0.01 0.02 0.03 0.00 0.01 0.00 0.00 0.00 0.00 0.00 0.01 0.01 0.03 0.04 0.14 0.15 0.08 0.34 0.26 0.31 0.66 0.18 0.28 0.21 0.24 0.24 0.21 0.33 0.22 0.56 0.56 0.90 0.36 0.14 0.25 0.29 0.03 0.04 0.01 0.00 0.00 0.00 0.00 0.00 0.00 0.00 0.00 0.00 0.00 0.00 0.00 0.01 0.01 0.00 0.01 0.00 0.00 0.00 0.00
0.00 0.00 0.00 0.00 0.00 0.00 0.00 0.00 0.00 0.00 0.00 0.00 0.00 0.00 0.00 0.00 0.00 0.00 0.00 0.00 0.00 0.00 0.00 0.00 0.03 0.05 0.02 0.16 0.02 0.03 0.04 0.00 0.01 0.00 0.01 0.00 0.00 0.01 0.00 0.01 0.02 0.13 0.33 0.16 0.22 0.35 0.17 0.49 0.39 0.63 0.15 0.26 0.08 0.17 0.45 0.51 0.61 0.72 0.67 0.61 0.30 0.20 0.27 0.12 0.05 0.06 0.03 0.02 0.00 0.00 0.00 0.00 0.00 0.00 0.00 0.00 0.00 0.00 0.01 0.01 0.00 0.01 0.00 0.00 0.00 0.00
0.00 0.00 0.00 0.00 0.00 0.00 0.00 0.00 0.00 0.00 0.00 0.00 0.00 0.00 0.00 0.00 0.00 0.00 0.00 0.00 0.00 0.00 0.06 0.01 0.05 0.02 0.07 0.09 0.01 0.04 0.01 0.00 0.00 0.00 0.00 0.00 0.00 0.00 0.00 0.00 0.00 0.03 0.04 0.23 0.34 0.27 0.13 0.12 0.35 0.44 0.68 0.42 0.75 0.53 0.35 0.57 0.62 0.69 0.47 0.27 0.51 0.36 0.30 0.12 0.09 0.11 0.06 0.08 0.03 0.00 0.00 0.00 0.00 0.00 0.00 0.00 0.00 0.00 0.00 0.00 0.00 0.00 0.01 0.00 0.00 0.00
0.00 0.00 0.00 0.00 0.00 0.00 0.00 0.00 0.00 0.00 0.00 0.00 0.00 0.00 0.00 0.00 0.00 0.00 0.00 0.04 0.00 0.00 0.00 0.43 0.20 0.40 0.35 0.13 0.06 0.04 0.03 0.01 0.01 0.00 0.00 0.00 0.00 0.00 0.00 0.00 0.00 0.01 0.03 0.23 0.22 0.13 0.11 0.13 0.31 0.82 1.01 1.27 1.12 0.74 0.65 1.07 0.34 0.20 0.42 0.30 0.40 0.70 0.63 0.18 0.13 0.09 0.09 0.12 0.06 0.02 0.01 0.00 0.00 0.00 0.00 0.00 0.00 0.00 0.00 0.00 0.05 0.00 0.01 0.00 0.00 0.00
0.00 0.00 0.00 0.00 0.00 0.00 0.00 0.00 0.00 0.00 0.00 0.00 0.00 0.00 0.00 0.00 0.00 0.00 0.00 0.02 0.01 0.02 0.00 0.04 0.10 0.09 0.15 0.19 1.07 0.46 0.01 0.00 0.00 0.00 0.00 0.00 0.00 0.00 0.00 0.00 0.00 0.01 0.02 0.12 0.13 0.15 0.13 0.06 0.17 0.72 1.11 0.84 0.63 0.68 0.62 0.85 0.60 0.33 0.25 0.28 0.16 0.06 0.26 0.11 0.14 0.17 0.16 0.15 0.18 0.10 0.01 0.04 0.00 0.00 0.00 0.00 0.00 0.03 0.00 0.00 0.03 0.03 0.05 0.02 0.00 0.00
0.00 0.00 0.00 0.00 0.00 0.00 0.00 0.00 0.00 0.00 0.00 0.00 0.00 0.00 0.00 0.00 0.00 0.00 0.00 0.00 0.00 0.00 0.00 0.02 0.18 0.05 0.03 0.12 0.11 0.23 0.03 0.00 0.00 0.00 0.00 0.00 0.00 0.00 0.00 0.00 0.00 0.03 0.15 0.02 0.02 0.01 0.01 0.03 0.12 0.51 0.59 0.31 0.37 0.62 0.98 0.60 0.88 0.58 0.29 0.17 0.29 0.18 0.58 0.16 0.39 0.24 0.13 0.27 0.32 0.38 0.28 0.32 0.21 0.00 0.00 0.00 0.00 0.00 0.00 0.00 0.04 0.01 0.00 0.00 0.01 0.00
0.00 0.00 0.00 0.01 0.00 0.00 0.00 0.00 0.00 0.00 0.00 0.01 0.00 0.00 0.00 0.00 0.00 0.01 0.00 0.00 0.00 0.00 0.00 0.10 0.04 0.13 0.03 0.02 0.02 0.02 0.01 0.00 0.00 0.00 0.00 0.00 0.00 0.00 0.00 0.00 0.00 0.01 0.03 0.00 0.01 0.00 0.00 0.01 0.02 0.03 0.06 0.10 0.19 0.37 0.42 0.48 0.39 0.33 0.59 0.80 0.46 0.39 0.33 0.35 0.21 0.09 0.13 0.10 0.03 0.06 0.14 0.11 0.18 0.03 0.01 0.00 0.00 0.02 0.02 0.00 0.00 0.00 0.00 0.01 0.05 0.02
0.00 0.00 0.00 0.00 0.00 0.00 0.00 0.00 0.00 0.00 0.00 0.00 0.00 0.00 0.00 0.00 0.00 0.00 0.00 0.01 0.00 0.00 0.02 0.09 0.09 0.14 0.05 0.11 0.07 0.14 0.01 0.00 0.00 0.00 0.00 0.00 0.00 0.00 0.00 0.00 0.00 0.00 0.00 0.00 0.00 0.00 0.01 0.00 0.01 0.01 0.00 0.11 0.15 0.35 0.37 0.51 0.42 0.41 0.75 1.10 1.20 1.08 1.16 0.95 0.66 0.55 0.41 0.19 0.12 0.12 0.03 0.04 0.06 0.05 0.04 0.00 0.00 0.00 0.00 0.00 0.00 0.00 0.01 0.00 0.01 0.01
0.00 0.01 0.00 0.01 0.03 0.00 0.00 0.00 0.00 0.00 0.00 0.00 0.00 0.00 0.00 0.00 0.00 0.00 0.00 0.01 0.02 0.00 0.08 0.03 0.05 0.09 0.11 0.03 0.01 0.00 0.01 0.00 0.00 0.00 0.00 0.00 0.00 0.00 0.00 0.00 0.00 0.00 0.00 0.00 0.00 0.00 0.00 0.01 0.01 0.02 0.00 0.03 0.12 0.22 0.15 0.19 0.17 0.42 0.55 0.78 0.39 0.74 0.91 0.27 0.67 0.35 0.29 0.18 0.30 0.34 0.27 0.10 0.22 0.19 0.27 0.34 0.35 0.12 0.03 0.01 0.00 0.00 0.00 0.00 0.00 0.00
0.04 0.01 0.05 0.04 0.01 0.00 0.00 0.00 0.01 0.02 0.00 0.00 0.00 0.00 0.02 0.01 0.00 0.00 0.00 0.01 0.00 0.02 0.02 0.05 0.10 0.05 0.02 0.04 0.22 0.18 0.00 0.01 0.00 0.00 0.00 0.00 0.00 0.00 0.00 0.00 0.00 0.00 0.00 0.00 0.00 0.00 0.00 0.00 0.00 0.00 0.00 0.05 0.04 0.04 0.01 0.03 0.20 0.18 0.63 0.23 0.36 0.39 0.39 0.52 0.35 0.45 0.54 0.50 0.52 0.45 0.27 0.15 0.19 0.32 0.36 0.43 0.55 0.45 0.12 0.03 0.01 0.01 0.00 0.01 0.03 0.05
0.03 0.00 0.00 0.01 0.03 0.11 0.21 0.16 0.01 0.00 0.01 0.01 0.03 0.00 0.01 0.01 0.01 0.00 0.01 0.01 0.00 0.04 0.06 0.07 0.00 0.02 0.01 0.02 0.01 0.01 0.00 0.00 0.06 0.00 0.00 0.00 0.00 0.00 0.00 0.00 0.01 0.01 0.00 0.00 0.00 0.00 0.00 0.00 0.00 0.00 0.00 0.00 0.02 0.00 0.00 0.01 0.10 0.29 0.33 0.16 0.31 0.21 0.06 0.19 0.18 0.21 0.48 0.60 0.48 0.46 0.33 0.31 0.29 0.08 0.35 0.71 0.92 0.89 0.33 0.11 0.04 0.03 0.01 0.04 0.02 0.01
0.02 0.00 0.00 0.01 0.00 0.00 0.03 0.00 0.05 0.00 0.00 0.00 0.00 0.00 0.00 0.02 0.00 0.07 0.02 0.04 0.00 0.00 0.08 0.02 0.01 0.00 0.04 0.02 0.02 0.01 0.02 0.06 0.11 0.01 0.00 0.00 0.00 0.00 0.00 0.00 0.00 0.01 0.01 0.01 0.00 0.01 0.01 0.01 0.00 0.00 0.01 0.01 0.03 0.04 0.00 0.00 0.01 0.08 0.11 0.34 0.15 0.10 0.09 0.06 0.06 0.09 0.11 0.12 0.19 0.32 0.44 0.53 0.49 0.84 0.77 0.88 0.44 0.58 0.57 0.32 0.03 0.06 0.04 0.02 0.01 0.00
0.01 0.01 0.00 0.00 0.00 0.00 0.00 0.01 0.01 0.12 0.00 0.00 0.00 0.00 0.00 0.00 0.00 0.01 0.00 0.00 0.01 0.02 0.15 0.02 0.03 0.04 0.00 0.07 0.06 0.02 0.03 0.01 0.12 0.38 0.05 0.00 0.00 0.00 0.00 0.00 0.00 0.01 0.01 0.01 0.01 0.02 0.02 0.03 0.04 0.02 0.02 0.07 0.13 0.07 0.13 0.06 0.00 0.01 0.06 0.14 0.14 0.08 0.05 0.05 0.04 0.02 0.05 0.10 0.31 0.51 0.60 0.60 0.58 0.50 0.51 0.47 0.33 0.80 1.21 0.49 0.03 0.01 0.01 0.02 0.01 0.00
0.03 0.01 0.00 0.00 0.00 0.00 0.00 0.00 0.00 0.01 0.00 0.00 0.00 0.00 0.00 0.00 0.00 0.00 0.00 0.00 0.01 0.01 0.03 0.02 0.06 0.14 0.07 0.19 0.10 0.07 0.03 0.01 0.18 0.21 0.23 0.06 0.01 0.00 0.00 0.01 0.01 0.01 0.02 0.03 0.00 0.01 0.02 0.03 0.03 0.04 0.04 0.15 0.10 0.10 0.06 0.07 0.03 0.01 0.01 0.00 0.02 0.02 0.16 0.07 0.06 0.02 0.04 0.17 0.60 0.60 0.50 0.58 0.62 0.59 0.38 0.68 0.49 0.53 0.41 0.11 0.04 0.01 0.02 0.01 0.01 0.00
0.01 0.02 0.00 0.01 0.03 0.02 0.01 0.02 0.00 0.00 0.00 0.00 0.00 0.00 0.01 0.01 0.00 0.00 0.00 0.00 0.00 0.01 0.01 0.02 0.04 0.10 0.37 0.07 0.13 0.05 0.02 0.01 0.07 0.13 0.45 0.26 0.03 0.00 0.01 0.07 0.01 0.00 0.01 0.01 0.00 0.00 0.01 0.01 0.02 0.04 0.02 0.04 0.04 0.02 0.08 0.04 0.01 0.04 0.02 0.02 0.02 0.01 0.03 0.04 0.17 0.14 0.02 0.11 0.09 0.24 0.26 0.08 0.18 0.10 0.27 0.22 0.15 0.21 0.17 0.18 0.25 0.13 0.01 0.00 0.00 0.00
0.02 0.03 0.01 0.03 0.02 0.03 0.03 0.03 0.00 0.00 0.00 0.00 0.00 0.00 0.00 0.00 0.01 0.01 0.01 0.03 0.02 0.04 0.03 0.06 0.11 0.04 0.22 0.06 0.22 0.02 0.02 0.17 0.09 0.09 0.17 0.68 0.23 0.05 0.00 0.05 0.06 0.00 0.01 0.00 0.00 0.00 0.00 0.01 0.01 0.08 0.12 0.05 0.09 0.05 0.05 0.06 0.13 0.10 0.04 0.03 0.02 0.02 0.01 0.02 0.00 0.02 0.03 0.03 0.04 0.15 0.27 0.63 0.36 0.19 0.23 0.21 0.24 0.25 0.28 0.16 0.14 0.16 0.11 0.07 0.00 0.01
0.07 0.04 0.04 0.06 0.02 0.01 0.01 0.07 0.05 0.04 0.07 0.03 0.00 0.00 0.01 0.01 0.01 0.03 0.01 0.00 0.03 0.03 0.04 0.07 0.11 0.06 0.07 0.06 0.04 0.14 0.03 0.04 0.15 0.14 0.07 0.28 0.50 0.29 0.03 0.02 0.01 0.16 0.00 0.02 0.05 0.05 0.01 0.04 0.01 0.01 0.01 0.08 0.49 0.18 0.12 0.13 0.18 0.51 0.42 0.28 0.07 0.15 0.23 0.26 0.06 0.01 0.01 0.21 0.13 0.06 0.35 0.43 0.44 0.38 0.20 0.36 0.60 0.46 0.49 0.33 0.52 0.35 0.31 0.17 0.08 0.05
0.10 0.06 0.06 0.09 0.18 0.05 0.02 0.10 0.13 0.24 0.14 0.00 0.02 0.00 0.00 0.01 0.04 0.02 0.04 0.06 0.02 0.02 0.14 0.14 0.12 0.07 0.04 0.07 0.05 0.01 0.05 0.07 0.05 0.07 0.11 0.10 0.28 0.26 0.28 0.06 0.01 0.05 0.03 0.05 0.16 0.35 0.38 0.05 0.11 0.03 0.07 0.01 0.03 0.04 0.09 0.23 0.08 0.04 0.08 0.36 0.83 0.96 0.81 0.51 0.47 0.30 0.09 0.03 0.06 0.02 0.12 0.21 0.62 0.41 0.38 0.76 0.59 0.64 0.58 0.43 0.31 0.32 0.26 0.18 0.14 0.09
0.11 0.11 0.09 0.16 0.15 0.03 0.04 0.25 0.21 0.28 0.03 0.02 0.01 0.08 0.06 0.09 0.11 0.04 0.11 0.04 0.02 0.01 0.01 0.04 0.05 0.01 0.00 0.03 0.05 0.00 0.02 0.07 0.06 0.13 0.01 0.10 0.06 0.29 0.32 0.47 0.17 0.02 0.08 0.01 0.00 0.00 0.20 0.93 0.75 0.90 0.64 0.36 0.22 0.01 0.01 0.00 0.01 0.01 0.22 0.22 0.10 0.11 0.56 0.41 0.43 0.37 0.11 0.01 0.01 0.02 0.02 0.09 0.28 0.57 0.43 0.79 0.68 0.43 0.51 0.51 0.30 0.20 0.27 0.34 0.54 0.48
0.08 0.15 0.17 0.16 0.12 0.03 0.11 0.53 0.61 0.10 0.38 0.06 0.05 0.19 0.17 0.07 0.03 0.05 0.09 0.02 0.00 0.02 0.02 0.02 0.07 0.10 0.03 0.03 0.04 0.01 0.02 0.02 0.05 0.02 0.00 0.06 0.06 0.09 0.33 0.23 0.42 0.10 0.10 0.01 0.00 0.00 0.00 0.09 0.33 0.58 0.78 0.99 1.14 0.61 0.21 0.09 0.01 0.07 0.11 0.07 0.11 0.12 0.02 0.03 0.04 0.06 0.06 0.09 0.05 0.19 0.11 0.03 0.03 0.13 0.26 0.66 0.39 0.39 0.52 0.68 0.45 0.51 0.40 0.56 0.59 0.68
0.13 0.16 0.22 0.17 0.11 0.22 0.05 0.41 0.24 0.69 0.34 0.32 0.22 0.49 0.32 0.31 0.30 0.27 0.30 0.10 0.03 0.02 0.05 0.09 0.08 0.08 0.02 0.06 0.01 0.01 0.01 0.00 0.01 0.10 0.00 0.01 0.03 0.02 0.06 0.16 0.32 0.45 0.08 0.01 0.02 0.02 0.02 0.00 0.00 0.17 0.06 0.24 0.50 0.75 0.89 1.17 0.92 0.03 0.01 0.02 0.02 0.77 1.15 0.09 0.06 0.20 0.27 0.38 0.32 0.24 0.27 0.22 0.45 0.49 0.32 0.41 0.67 0.24 0.33 0.33 0.51 0.44 0.63 0.70 0.57 0.27
0.21 0.30 0.22 0.22 0.34 0.08 0.20 0.23 1.11 0.55 0.72 0.58 0.46 0.16 0.06 0.29 0.09 0.09 0.13 0.26 0.13 0.18 0.09 0.12 0.08 0.04 0.04 0.03 0.03 0.02 0.00 0.01 0.02 0.08 0.02 0.01 0.03 0.03 0.14 0.04 0.09 0.34 0.28 0.27 0.07 0.04 0.01 0.02 0.01 0.00 0.04 0.07 0.03 0.34 0.53 1.02 0.91 0.14 0.08 0.01 0.01 0.01 0.39 0.13 0.00 0.01 0.06 0.62 0.95 0.50 0.37 0.64 0.50 0.46 0.31 0.42 0.49 0.52 0.60 0.85 0.81 0.68 1.02 1.13 0.66 0.41
0.25 0.32 0.25 0.32 0.21 0.23 0.21 0.30 0.65 0.58 0.68 1.07 0.43 0.27 0.13 0.06 0.37 0.38 0.11 0.40 0.33 0.31 0.09 0.10 0.09 0.03 0.02 0.01 0.02 0.01 0.01 0.06 0.12 0.11 0.03 0.03 0.03 0.03 0.04 0.10 0.10 0.07 0.24 0.21 0.10 0.04 0.00 0.00 0.03 0.01 0.01 0.00 0.02 0.14 0.16 0.17 0.40 0.35 0.02 0.01 0.01 0.01 0.01 0.00 0.05 0.02 0.03 0.02 0.04 0.03 0.06 0.08 0.21 0.16 0.16 0.16 0.45 0.89 1.33 1.01 0.67 0.42 0.67 0.66 0.35 0.40
0.51 0.45 0.54 0.51 0.37 0.19 0.19 0.29 0.55 0.55 1.22 0.67 0.74 0.30 0.12 0.13 0.30 0.40 0.32 0.53 0.35 0.19 0.17 0.14 0.09 0.05 0.03 0.04 0.02 0.01 0.02 0.06 0.14 0.16 0.10 0.14 0.13 0.12 0.06 0.12 0.06 0.04 0.09 0.13 0.17 0.04 0.02 0.01 0.00 0.00 0.01 0.01 0.01 0.05 0.12 0.09 0.20 0.21 0.13 0.00 0.01 0.01 0.01 0.00 0.03 0.07 0.01 0.02 0.05 0.08 0.09 0.11 0.06 0.11 0.25 0.33 0.14 0.30 0.44 0.68 0.53 0.53 0.44 0.39 0.29 0.14
0.64 0.51 0.48 0.35 0.23 0.50 0.24 0.20 0.31 0.61 0.35 0.45 0.72 0.53 0.18 0.39 0.30 0.33 0.48 2.89 0.40 0.26 0.21 0.19 0.18 0.05 0.03 0.02 0.06 0.12 0.17 0.22 0.28 0.35 0.18 0.15 0.08 0.08 0.06 0.06 0.06 0.03 0.02 0.01 0.17 0.08 0.07 0.03 0.01 0.00 0.00 0.02 0.00 0.00 0.08 0.16 0.06 0.03 0.10 0.07 0.01 0.01 0.07 0.05 0.01 0.01 0.04 0.00 0.01 0.00 0.01 0.02 0.11 0.27 0.20 0.25 0.39 0.49 1.35 2.11 1.58 0.98 0.84 0.37 0.07 0.06
0.61 0.63 0.44 0.36 0.47 0.64 0.40 0.36 0.24 0.77 1.17 0.62 0.41 0.49 1.15 1.06 0.63 0.89 1.00 0.60 0.94 0.63 0.26 0.23 0.20 0.08 0.03 0.02 0.08 0.09 0.14 0.20 0.29 0.27 0.15 0.10 0.12 0.12 0.07 0.06 0.02 0.01 0.02 0.01 0.04 0.08 0.05 0.02 0.01 0.00 0.00 0.00 0.00 0.00 0.00 0.03 0.18 0.14 0.01 0.00 0.01 0.02 0.01 0.05 0.13 0.08 0.00 0.03 0.02 0.07 0.02 0.02 0.04 0.05 0.17 0.28 0.46 1.53 1.28 1.10 1.26 1.10 0.05 0.07 0.15 0.14
1.04 0.75 0.67 0.39 0.38 0.51 0.53 0.60 0.39 0.76 1.60 0.23 0.83 1.37 1.65 0.69 1.48 0.76 0.60 0.38 0.98 0.39 0.31 0.23 0.29 0.17 0.06 0.04 0.04 0.10 0.15 0.14 0.17 0.18 0.10 0.09 0.07 0.09 0.05 0.09 0.07 0.09 0.05 0.05 0.01 0.06 0.04 0.04 0.01 0.01 0.01 0.00 0.00 0.00 0.00 0.00 0.00 0.04 0.13 0.06 0.01 0.05 0.03 0.01 0.01 0.03 0.03 0.13 0.17 0.21 0.52 0.85 1.11 0.96 1.05 1.11 0.99 0.20 0.20 0.17 0.07 0.09 0.10 0.15 0.23 0.18
0.86 0.93 0.89 0.66 0.52 1.20 0.76 0.85 0.99 1.13 0.79 0.56 0.85 2.51 1.20 1.11 0.73 0.48 0.39 0.61 0.93 0.96 0.43 0.35 0.21 0.23 0.12 0.05 0.07 0.15 0.18 0.17 0.12 0.09 0.05 0.06 0.02 0.05 0.05 0.04 0.08 0.03 0.03 0.01 0.03 0.05 0.01 0.05 0.08 0.02 0.01 0.01 0.01 0.00 0.00 0.01 0.01 0.00 0.02 0.17 0.19 0.01 0.01 0.00 0.00 0.00 0.00 0.00 0.06 0.07 0.13 0.27 0.16 0.10 0.02 0.04 0.01 0.02 0.03 0.03 0.01 0.03 0.17 0.14 0.39 0.73
1.10 1.17 1.33 1.00 0.82 0.59 1.13 0.97 0.96 0.56 0.92 0.65 0.82 1.19 1.02 0.87 0.36 0.61 0.28 0.39 0.92 1.34 0.85 0.38 0.21 0.23 0.21 0.06 0.06 0.13 0.31 0.39 0.15 0.09 0.06 0.10 0.07 0.06 0.11 0.09 0.09 0.11 0.08 0.13 0.04 0.05 0.04 0.01 0.03 0.03 0.03 0.01 0.01 0.01 0.00 0.01 0.02 0.06 0.01 0.04 0.04 0.19 0.04 0.00 0.00 0.00 0.01 0.01 0.00 0.00 0.00 0.00 0.02 0.01 0.03 0.02 0.01 0.01 0.01 0.03 0.19 0.41 0.53 0.72 0.65 0.44
0.80 0.87 0.69 0.60 0.60 0.37 0.51 0.58 0.79 0.58 0.50 1.19 0.55 1.32 1.32 1.08 0.45 0.57 0.57 0.50 0.44 0.77 0.78 1.16 0.44 0.24 0.19 0.19 0.12 0.12 0.33 0.63 0.64 0.09 0.13 0.11 0.12 0.28 0.26 0.22 0.18 0.30 0.36 0.26 0.08 0.13 0.13 0.12 0.07 0.11 0.20 0.24 0.27 0.21 0.21 0.16 0.17 0.15 0.23 0.22 0.19 0.07 0.29 0.44 0.68 0.81 1.03 0.81 0.76 0.58 0.31 0.15 0.13 0.22 0.36 0.41 0.53 0.67 0.76 0.80 0.80 0.70 0.56 0.39 0.47 0.43
0.77 0.55 0.74 0.52 0.67 0.33 0.79 0.60 1.04 0.78 0.56 0.83 1.13 1.09 1.57 1.63 1.60 0.82 0.93 0.67 0.83 0.83 0.79 0.63 0.93 0.56 0.65 0.70 0.43 0.33 0.43 0.53 0.98 0.66 0.08 0.07 0.34 0.24 0.07 0.13 0.25 0.41 0.41 0.36 0.36 0.17 0.17 0.39 0.36 0.42 0.41 0.50 0.46 0.49 0.61 0.88 0.96 0.93 0.76 0.62 0.75 0.93 1.38 1.67 1.64 1.57 1.58 1.37 1.40 1.41 1.09 0.99 1.00 0.94 0.77 0.65 0.62 0.59 0.46 0.40 0.55 0.45 0.51 0.44 0.42 0.34
1.37 0.60 0.62 0.45 0.59 0.44 0.69 0.61 0.72 0.79 0.85 1.02 1.07 1.16 1.41 1.58 2.21 1.75 1.41 0.57 0.76 1.70 0.96 0.80 0.96 1.20 0.82 0.49 0.62 0.45 0.30 0.53 0.56 1.13 0.65 0.55 0.48 0.38 0.27 0.24 0.36 0.42 0.51 0.60 0.81 0.78 0.64 0.63 0.66 0.68 0.55 0.97 0.97 0.94 0.94 1.45 1.24 1.40 1.60 1.62 1.17 0.85 0.44 0.64 0.50 0.53 0.40 0.42 0.43 0.40 0.37 0.33 0.24 0.35 0.45 0.50 0.37 0.35 0.19 0.12 0.16 0.21 0.14 0.09 0.07 0.17
1.13 0.52 0.90 0.98 0.61 0.88 0.65 0.82 0.70 0.59 0.56 1.11 0.82 0.96 1.12 1.28 1.70 2.07 1.51 0.93 0.57 1.06 1.12 0.97 0.67 1.00 0.84 0.58 0.19 0.36 0.20 0.24 0.23 0.72 0.98 0.18 0.20 0.21 0.21 0.11 0.23 0.35 0.30 0.25 0.51 0.55 0.39 0.34 0.40 0.34 0.22 0.15 0.36 0.88 1.03 1.42 1.72 1.69 1.44 1.76 1.79 1.58 1.50 1.38 0.97 0.74 0.42 0.30 0.30 0.14 0.11 0.19 0.42 0.40 0.33 0.34 0.22 0.11 0.18 0.07 0.05 0.03 0.09 0.05 0.07 0.12
0.75 0.78 0.73 0.62 0.93 0.72 0.84 0.96 0.69 0.92 0.89 0.67 0.75 0.71 0.95 1.27 1.16 1.76 1.69 1.18 0.48 0.70 1.01 0.92 0.59 0.60 0.67 0.53 0.77 0.79 0.81 0.65 0.50 0.55 1.38 0.56 0.58 0.63 0.38 0.41 0.34 0.53 0.51 0.37 0.48 0.53 0.41 0.67 0.54 0.53 0.59 0.83 1.07 1.01 1.29 1.14 1.02 0.89 1.05 0.85 0.65 0.76 0.91 0.99 1.07 0.98 1.05 0.74 0.66 0.70 0.74 0.51 0.38 0.24 0.24 0.27 0.11 0.13 0.17 0.09 0.10 0.07 0.14 0.23 0.13 0.23
0.92 0.95 0.89 1.18 0.86 0.75 0.91 0.99 0.90 1.04 0.88 0.58 0.57 0.45 0.52 0.72 0.76 1.19 1.83 1.77 1.00 0.34 0.62 1.06 1.01 0.76 0.90 0.48 0.30 0.34 0.50 0.31 0.30 0.12 0.65 1.04 0.37 0.35 0.43 0.42 0.16 0.17 0.50 0.65 0.82 0.88 0.88 0.75 0.48 0.47 0.56 0.48 0.22 0.25 0.58 1.11 1.00 0.68 0.47 0.44 0.64 0.68 0.62 0.71 0.72 0.77 0.90 1.59 1.47 1.25 1.17 0.94 0.90 1.08 1.03 1.11 1.12 0.57 0.43 0.31 0.33 0.25 0.32 0.18 0.22 0.11